Regional Weather Roundup
Issued by NWS

Home | Current Version | Previous Version | Graphics & Text | Print | Product List | Glossary Off
Versions: 1 2 3 4 5 6 7 8 9 10 11 12 13 14 15 16 17 18 19 20 21 22 23 24 25 26 27 28 29 30 31 32 33 34 35 36 37 38 39 40 41 42 43 44 45 46 47 48 49 50

000
ASUS43 KDMX 230701
RWRIA

WEATHER ROUNDUP FOR IOWA
NATIONAL WEATHER SERVICE DES MOINES IA
200 AM CDT WED AUG 23 2017

NOTE: "FAIR" INDICATES FEW OR NO CLOUDS BELOW 12,000 FEET WITH NO
SIGNIFICANT WEATHER AND/OR OBSTRUCTIONS TO VISIBILITY.

* - THESE STATIONS ARE NOT NWS STATIONS...THUS NOT UNDER NWS
QUALITY CONTROL.  THEY ALSO DO NOT REPORT WEATHER SUCH
AS PRECIPITATION OR FOG.

IAZ001>003-012>014-020>022-031>034-043>046-230800-
   NORTHWEST IOWA

CITY           SKY/WX    TMP DP  RH WIND       PRES   REMARKS
CARROLL *      CLEAR     55  54  94 W6        30.15S
CHEROKEE *     CLEAR     52  52 100 CALM      30.16S
DENISON *      CLEAR     52  52 100 CALM      30.18S
LE MARS *      CLEAR    106 N/A N/A CALM      30.15F FOG
ORANGE CITY *  CLEAR     57  52  82 CALM      30.16S
SHELDON *      CLEAR     48  46  93 CALM      30.14F
SIOUX CITY     CLEAR     54  53  97 SW5       30.16S
SPENCER        CLEAR     50  49  96 W5        30.15F
STORM LAKE *   CLEAR     55  52  88 W10       30.16S
$$

IAZ055>058-069>071-079>083-090>094-230800-
   SOUTHWEST IOWA

CITY           SKY/WX    TMP DP  RH WIND       PRES   REMARKS
ATLANTIC *     CLEAR     54  54 100 CALM      30.16F
AUDUBON *      CLEAR     52  48  87 CALM      30.18S
CLARINDA *     FOG       52  52 100 CALM      30.19S VSB 1/4
COUNCIL BLFS * CLEAR     57  57 100 CALM      30.17F
CRESTON *      CLEAR     55  52  88 NW6       30.18S
HARLAN  *      CLEAR     52  52 100 CALM      30.20F
LAMONI         CLEAR     55  52  89 W6        30.15S
RED OAK *      CLEAR     54  54 100 CALM      30.17F
SHENANDOAH *   CLEAR     54  54 100 CALM      30.18S
$$

IAZ047>049-059>061-072>074-084-230800-
   CENTRAL IOWA

CITY           SKY/WX    TMP DP  RH WIND       PRES   REMARKS
AMES           CLEAR     53  53 100 W3        30.13S
ANKENY *       CLEAR     55  54  94 CALM      30.15S
BOONE *        CLEAR     57  52  82 W5        30.14S
CHARITON *     CLEAR     55  52  88 W5        30.14S
DES MOINES     CLEAR     58  54  86 W3        30.13F
GRINNELL*      CLEAR     53  50  91 CALM      30.13F
KNOXVILLE *    CLEAR     55  52  88 W7        30.13R
MARSHALLTOWN   CLEAR     52  51  97 W5        30.12S
NEWTON *       CLEAR     54  52  94 W5        30.13S
PELLA *        CLEAR     56  54  91 CALM      30.14S
PERRY *          N/A     53  52  98 W6        30.15F
$$

IAZ004>006-015-016-023>025-035-036-230800-
   NORTH CENTRAL IOWA

CITY           SKY/WX    TMP DP  RH WIND       PRES   REMARKS
ALGONA *       CLEAR     54  52  94 W7        30.13F
CLARION *      CLEAR     48  48 100 CALM      30.13F
ESTHERVILLE    CLEAR     51  51 100 W7        30.13F
FORT DODGE *   CLEAR     54  50  87 CALM      30.15S
MASON CITY     CLEAR     51  48  89 W9        30.13S
FOREST CITY *    N/A     50  48  93 CALM      30.12F
WEBSTER CITY * CLEAR     54  52  94 W6        30.12S
IOWA FALLS *     N/A     53  51  93 W5        30.14S
$$

IAZ007>011-017>019-026>030-037>042-050>054-066-230800-
   NORTHEAST IOWA

CITY           SKY/WX    TMP DP  RH WIND       PRES   REMARKS
CEDAR RAPIDS   CLEAR     52  51  97 NW6       30.09S
CHARLES CITY * CLEAR     52  52 100 W7        30.10F
CLINTON *      CLEAR     52  51  97 W7        30.08S
DECORAH *      CLEAR     55  50  82 CALM      30.07S
DUBUQUE        CLEAR     55  50  83 NW7       30.08S
MONTICELLO *   CLEAR     52  50  93 CALM      30.08S
OELWEIN *        N/A     52  52 100 W7        30.10S
WATERLOO       CLEAR     53  50  89 NW5       30.10S
$$

IAZ064-065-067-068-078-230800-
   EAST CENTRAL IOWA

CITY           SKY/WX    TMP DP  RH WIND       PRES   REMARKS
DAVENPORT      CLEAR     55  52  89 W6        30.10S
IOWA CITY      CLEAR     56  52  86 CALM      30.11S
MUSCATINE *    CLEAR     57  52  82 NW5       30.09S
QUAD CITIES    CLEAR     57  52  83 SW5       30.08S
$$

IAZ062-063-075>077-085>089-095>099-230800-
   SOUTHEAST IOWA

CITY           SKY/WX    TMP DP  RH WIND       PRES   REMARKS
BURLINGTON     CLEAR     57  54  89 NW6       30.10S
FAIRFIELD *    CLEAR     55  50  82 W7        30.11S
FORT MADISON * CLEAR     57  54  88 W3        30.11F
KEOKUK *       CLEAR     57  54  88 CALM      30.10F
OSKALOOSA *      N/A     53  51  94 W6        30.13S
OTTUMWA        CLEAR     54  52  93 W7        30.12S
WASHINGTON *   CLEAR     55  54  94 W7        30.11F
$$

ABBREVIATIONS USED IN REMARKS
   TC - TEMPERATURES IN CELSIUS
  WCI - WIND CHILL INDEX
   HX - HEAT INDEX
  VSB - VISIBILITY
$$





USA.gov is the U.S. government's official web portal to all federal, state and local government web resources and services.